Temp
11 11 11 11 11 11 11 11 11 11 11 11 11 11 11 11 11 11 11 11 11 11 11 11 11 11 11 11 10 11 11 11 11 11 11 11 11 11 11 11 11 11
11 11 11 11 11 11 11 11 11 11 11 11 11 11 11 11 11 11 11 11 11 11 11 11 11 11 11 11 11 11 11 11 11 11 11 11 11 11 11 11 11 11
11 11 11 11 11 11 11 11 11 11 11 11 11 11 11 11 11 11 11 11 11 11 11 11 11 11 11 11 11 11 11 11 11 11 11 11 11 11 11 11 11 11
11 11 11 11 11 11 11 11 11 11 11 11 11 11 11 11 11 11 11 11 11 11 11 11 11 11 11 11 11 11 11 11 11 11 11 11 11 11 11 11 11 11
11 11 11 11 11 11 11 11 11 11 11 11 11 11 11 11 11 11 11 11 11 11 11 11 11 11 11 11 11 11 11 11 11 11 11 11 11 11 11 11 11 11
11 11 11 11 11 11 11 11 11 11 11 11 11 11 11 11 11 11 11 11 11 11 11 11 11 11 11 11 11 11 11 11 11 11 11 11 11 11 11 11 11 11
11 11 11 11 11 11 11 11 11 11 11 11 11 11 11 11 11 11 11 11 11 11 11 11 11 11 11 11 11 11 11 11 11 11 11 11 11 11 11 11 11 11
11 11 11 11 11 11 11 11 11 11 11 11 11 11 11 11 11 11 11 11 11 11 11 11 11 11 11 11 11 11 11 11 11 11 11 11 11 11 11 11 11 11
11 11 11 11 11 12 11 11 11 11 11 11 11 12 12 11 11 11 11 11 11 11 11 11 11 11 11 11 11 11 11 11 11 11 11 11 11 11 11 11 11 11
11 11 11 11 11 12 12 12 11 11 11 11 11 11 12 12 12 11 11 11 11 11 11 11 11 11 11 11 11 11 11 11 11 11 11 11 11 11 11 11 11 11
11 11 11 11 11 11 12 12 11 11 11 11 11 11 11 12 12 12 12 11 11 11 11 11 11 11 11 11 11 11 11 11 11 11 11 11 11 11 11 11 11 11
11 10 10 11 11 11 11 11 11 11 12 12 11 11 11 11 12 12 12 12 12 11 11 11 11 11 11 11 11 11 11 11 11 11 11 11 11 11 11 11 11 11
11 11 10 10 11 11 11 11 11 11 11 11 11 11 11 11 11 12 12 12 12 11 11 11 11 11 11 11 11 11 11 11 11 11 11 11 11 11 11 11 11 11
11 10 10 10 10 10 10 11 11 11 11 11 11 11 11 11 11 11 11 11 11 11 11 11 11 11 11 11 11 11 11 11 11 11 11 11 11 11 11 11 11 11
11 11 10 10 10 10 10 10 10 11 11 11 11 11 11 11 11 11 11 11 11 11 11 11 11 11 11 11 11 11 11 11 11 11 11 11 11 11 11 11 11 11
11 11 10 10 10 10 10 10 10 10 10 10 10 10 11 11 11 11 11 11 12 11 11 11 11 11 11 11 11 11 11 11 11 11 11 11 11 11 11 11 11 11
11 11 10 10 9 9 10 10 10 10 9 9 10 9 10 10 11 11 11 11 11 12 12 11 11 11 11 11 11 11 11 11 11 11 11 11 11 11 11 11 11 11
11 11 11 10 9 9 10 10 10 10 9 9 9 9 9 9 10 11 11 11 11 11 12 12 12 11 11 11 11 11 11 11 11 11 11 11 11 11 11 11 11 11
11 11 11 11 10 10 10 10 10 10 9 9 9 9 10 10 10 10 11 11 11 11 11 11 12 12 12 11 12 11 11 11 11 11 11 11 11 11 11 11 11 11
11 11 11 10 10 10 10 10 10 10 11 10 10 10 10 10 10 10 10 10 11 11 10 11 11 12 12 12 12 12 12 11 11 11 11 11 11 11 11 11 11 11
10 10 10 10 10 10 10 10 10 10 11 12 11 11 11 10 10 10 10 11 11 11 11 11 11 11 12 12 12 12 12 12 12 11 11 11 11 11 11 11 11 11
10 10 10 10 10 10 10 10 10 10 11 11 12 11 11 11 10 10 10 10 11 11 11 11 11 11 12 12 13 13 12 12 12 12 11 11 11 11 11 11 11 11
10 10 10 10 10 10 10 10 10 10 11 11 11 11 11 11 11 11 10 10 11 11 11 11 11 11 11 11 11 12 12 12 12 12 12 12 11 11 11 11 11 11
9 9 10 10 10 10 10 10 10 10 11 11 11 11 11 11 11 11 11 11 11 11 11 11 11 11 11 11 11 11 11 12 12 12 12 12 12 12 12 11 12 12
9 9 9 9 9 10 10 10 10 10 10 11 12 12 11 11 11 11 11 11 11 11 11 11 11 11 11 11 11 11 11 11 11 12 12 12 12 12 12 12 12 12
9 9 9 9 9 9 10 10 10 10 10 11 11 12 11 11 11 10 10 10 11 11 11 11 11 11 11 11 11 11 11 11 11 11 12 12 12 12 12 12 12 12
Height
3219 3220 3221 3222 3223 3224 3225 3225 3226 3227 3228 3228 3229 3230 3231 3232 3232 3233 3234 3235 3236 3237 3238 3239 3240 3241 3241 3242 3243 3244 3244 3245 3247 3248 3249 3250 3251 3252 3253 3254 3254 3255
3218 3219 3221 3222 3222 3223 3224 3225 3226 3227 3227 3228 3229 3230 3231 3231 3232 3233 3234 3235 3236 3237 3238 3239 3240 3241 3241 3242 3243 3243 3244 3245 3247 3248 3248 3249 3250 3251 3252 3253 3254 3255
3217 3218 3220 3221 3222 3223 3224 3225 3225 3226 3227 3228 3229 3230 3231 3231 3232 3233 3234 3235 3236 3237 3238 3239 3240 3241 3241 3242 3243 3243 3244 3245 3246 3247 3248 3249 3250 3251 3252 3253 3254 3254
3216 3218 3219 3221 3222 3223 3223 3224 3225 3226 3227 3228 3229 3230 3230 3231 3232 3233 3234 3235 3236 3237 3238 3239 3240 3240 3241 3242 3243 3243 3244 3245 3246 3247 3248 3249 3250 3251 3251 3252 3253 3254
3216 3217 3218 3220 3221 3222 3223 3224 3225 3225 3226 3227 3228 3229 3230 3231 3231 3233 3234 3235 3236 3237 3238 3238 3239 3240 3241 3242 3243 3243 3244 3245 3246 3247 3248 3249 3250 3250 3251 3252 3253 3254
3215 3216 3217 3219 3220 3221 3222 3223 3224 3225 3226 3226 3227 3228 3229 3230 3231 3232 3233 3234 3235 3236 3237 3238 3239 3240 3241 3242 3243 3243 3244 3245 3246 3247 3248 3249 3249 3250 3251 3252 3252 3253
3214 3216 3217 3218 3219 3220 3221 3223 3223 3224 3225 3226 3227 3227 3228 3229 3230 3231 3232 3233 3234 3235 3236 3237 3238 3239 3240 3242 3242 3243 3244 3245 3246 3246 3247 3248 3249 3250 3251 3252 3252 3253
3214 3215 3216 3217 3218 3219 3220 3222 3223 3224 3224 3225 3226 3227 3228 3229 3230 3231 3232 3233 3234 3234 3235 3237 3238 3239 3240 3241 3242 3243 3244 3244 3245 3246 3247 3248 3249 3250 3251 3251 3252 3253
3213 3214 3215 3216 3217 3218 3219 3221 3222 3223 3224 3224 3225 3226 3227 3228 3229 3230 3231 3232 3233 3234 3235 3236 3237 3238 3239 3241 3242 3243 3243 3244 3245 3246 3247 3247 3248 3249 3250 3251 3252 3253
3212 3213 3215 3216 3217 3218 3219 3220 3221 3222 3223 3224 3225 3226 3226 3227 3228 3229 3230 3231 3232 3233 3234 3235 3236 3238 3239 3240 3241 3242 3243 3244 3245 3245 3246 3247 3248 3249 3250 3251 3251 3252
3211 3212 3214 3215 3216 3218 3219 3220 3221 3221 3222 3223 3224 3225 3225 3226 3227 3228 3229 3230 3231 3233 3234 3235 3236 3237 3238 3239 3240 3241 3243 3243 3244 3245 3246 3247 3248 3248 3249 3250 3251 3251
3208 3210 3212 3214 3216 3217 3218 3220 3220 3221 3221 3222 3223 3224 3224 3225 3226 3227 3228 3229 3231 3232 3233 3234 3235 3236 3237 3238 3239 3241 3242 3243 3244 3244 3245 3246 3247 3248 3248 3249 3250 3251
3206 3208 3210 3212 3214 3217 3218 3219 3220 3220 3221 3221 3222 3223 3224 3224 3225 3226 3227 3228 3230 3231 3232 3233 3234 3235 3236 3237 3238 3239 3241 3242 3243 3244 3245 3246 3246 3247 3248 3248 3249 3250
3204 3205 3206 3208 3211 3214 3218 3219 3219 3220 3221 3221 3222 3223 3223 3224 3224 3225 3226 3227 3229 3230 3231 3232 3233 3234 3235 3236 3238 3238 3239 3241 3242 3243 3244 3245 3246 3246 3247 3248 3248 3249
3202 3203 3205 3208 3210 3211 3213 3217 3218 3220 3221 3221 3221 3222 3223 3224 3224 3224 3225 3226 3228 3229 3230 3231 3232 3233 3234 3236 3237 3238 3239 3240 3241 3242 3243 3244 3244 3245 3246 3247 3247 3248
3201 3203 3205 3208 3210 3209 3210 3212 3214 3216 3219 3221 3222 3221 3221 3222 3224 3224 3224 3225 3226 3228 3229 3230 3231 3232 3233 3235 3236 3237 3238 3239 3240 3241 3242 3242 3243 3244 3245 3245 3246 3247
3199 3202 3204 3204 3204 3205 3208 3211 3211 3210 3211 3216 3220 3222 3222 3222 3222 3223 3224 3225 3225 3226 3228 3229 3230 3231 3232 3234 3235 3236 3237 3238 3238 3239 3240 3241 3241 3242 3243 3244 3245 3245
3197 3200 3201 3200 3198 3200 3204 3210 3213 3212 3209 3208 3210 3214 3218 3221 3222 3222 3223 3224 3224 3225 3225 3227 3229 3230 3231 3232 3234 3235 3236 3236 3237 3237 3238 3239 3239 3240 3241 3242 3243 3243
3194 3195 3196 3197 3198 3201 3203 3206 3210 3213 3213 3212 3209 3208 3209 3214 3218 3220 3221 3223 3223 3224 3224 3225 3226 3228 3229 3230 3231 3233 3234 3234 3235 3235 3236 3236 3237 3238 3239 3239 3240 3241
3190 3191 3192 3193 3196 3201 3202 3203 3206 3209 3212 3214 3215 3214 3213 3214 3215 3216 3218 3219 3220 3221 3222 3223 3223 3224 3226 3227 3228 3229 3231 3232 3232 3233 3233 3233 3234 3235 3236 3236 3237 3238
3186 3188 3189 3190 3193 3196 3198 3200 3203 3205 3207 3209 3211 3213 3215 3214 3214 3214 3214 3215 3216 3217 3217 3219 3220 3220 3220 3222 3224 3226 3227 3228 3229 3230 3230 3230 3231 3232 3232 3233 3234 3235
3183 3185 3186 3188 3190 3193 3195 3197 3199 3201 3203 3204 3206 3207 3208 3209 3211 3211 3212 3212 3213 3213 3214 3215 3217 3217 3217 3218 3220 3222 3223 3225 3226 3227 3227 3227 3228 3229 3229 3230 3231 3231
3180 3182 3183 3185 3188 3189 3191 3193 3195 3197 3198 3200 3202 3203 3205 3207 3208 3209 3209 3210 3210 3210 3211 3212 3214 3216 3217 3217 3218 3219 3220 3221 3222 3223 3224 3224 3225 3225 3226 3226 3227 3228
3178 3179 3181 3183 3185 3186 3188 3189 3191 3193 3195 3196 3197 3197 3199 3201 3203 3205 3206 3207 3208 3208 3208 3209 3211 3212 3213 3214 3215 3216 3217 3219 3220 3220 3220 3221 3221 3222 3222 3223 3223 3224
3176 3177 3179 3180 3181 3182 3184 3187 3188 3190 3191 3193 3193 3193 3193 3195 3197 3199 3201 3202 3204 3204 3205 3206 3207 3208 3209 3210 3211 3212 3213 3214 3215 3216 3217 3218 3218 3219 3219 3219 3220 3221
3174 3175 3177 3178 3178 3179 3181 3183 3184 3186 3188 3189 3190 3190 3190 3192 3194 3195 3196 3198 3200 3201 3202 3203 3203 3204 3205 3206 3207 3208 3208 3209 3210 3210 3212 3213 3215 3215 3216 3216 3217 3217
Wind_Speed
17 16 15 14 13 13 12 10 9 9 9 9 9 8 8 7 8 9 8 8 7 7 7 7 7 7 8 8 9 9 9 11 13 13 13 13 12 12 11 11 11 10
17 17 16 15 15 14 13 12 11 10 9 9 9 9 9 8 8 8 8 8 8 7 7 7 8 8 8 8 8 9 8 9 12 13 12 13 12 12 12 12 11 11
17 18 17 16 15 15 14 14 12 11 10 10 10 10 10 9 8 8 8 8 8 8 8 7 7 8 9 8 8 8 8 9 12 12 12 13 13 12 12 12 12 12
18 18 17 17 17 16 15 15 14 13 11 11 10 10 10 10 10 9 9 9 9 8 8 7 8 8 8 8 8 8 8 9 10 11 11 12 13 13 13 12 12 12
17 18 18 18 18 18 17 16 15 14 13 12 12 11 11 10 10 10 10 10 10 9 9 8 8 8 8 8 8 8 9 9 10 10 10 12 13 13 13 12 12 12
17 17 18 19 19 19 18 17 16 15 15 14 13 13 12 11 10 10 10 11 11 10 10 9 8 8 8 8 8 8 9 9 10 10 10 11 13 13 12 12 12 12
18 17 18 19 20 20 19 18 17 17 17 16 15 14 13 12 11 10 10 11 12 12 11 11 10 9 9 9 8 8 8 9 9 10 10 11 12 13 13 12 12 12
19 18 18 18 20 20 20 19 19 18 18 18 17 16 14 13 12 11 11 11 11 12 12 12 11 11 10 9 9 8 8 9 9 9 10 11 12 13 13 13 12 12
20 20 19 18 19 20 20 20 20 19 19 19 18 17 16 15 14 13 12 12 12 12 12 12 12 12 11 10 10 9 9 9 9 9 10 11 12 13 14 14 13 13
20 20 20 20 19 19 19 20 21 21 20 20 19 18 17 17 16 15 14 13 13 12 12 13 12 12 11 11 11 10 10 10 9 9 9 10 11 12 13 14 13 13
20 20 20 21 21 20 19 19 20 21 21 21 20 19 19 18 17 17 16 15 14 13 12 13 13 13 12 12 12 11 11 11 10 10 9 9 10 11 12 13 13 13
22 22 21 20 21 21 20 20 20 21 21 22 22 21 21 20 19 18 17 16 15 14 14 13 14 14 13 13 13 13 12 12 12 11 11 11 10 11 11 11 11 12
25 25 23 21 21 21 21 21 22 22 22 22 21 21 23 23 22 20 18 17 16 15 15 15 15 15 15 14 14 14 14 14 13 12 12 12 12 11 11 11 11 11
28 29 29 27 24 22 21 22 23 23 23 23 21 21 22 23 23 22 20 19 17 16 16 16 16 16 16 16 15 15 15 14 14 14 13 13 13 13 13 13 13 13
30 30 30 29 26 25 24 23 23 23 24 25 24 22 21 21 22 22 22 21 19 18 18 17 17 17 17 17 16 16 16 15 15 15 15 15 14 14 14 15 15 15
31 31 31 30 28 28 28 27 26 24 23 24 26 25 24 22 21 22 22 22 20 20 20 19 19 19 18 17 16 16 16 15 15 15 16 17 17 16 17 17 16 16
28 30 31 29 27 28 29 30 31 30 27 26 26 26 26 25 23 22 22 22 21 20 19 20 21 21 20 18 17 17 17 17 17 17 16 17 17 18 18 18 18 18
26 28 30 29 27 28 29 31 33 32 31 33 30 27 27 26 25 24 23 23 23 22 21 20 20 21 22 20 18 18 19 19 19 19 19 19 18 18 19 19 19 20
27 28 30 31 31 30 30 31 33 33 32 32 32 32 31 28 25 25 24 23 23 24 23 21 20 21 22 22 20 19 19 21 21 22 23 22 22 21 20 20 20 20
28 28 30 32 31 31 31 31 31 31 31 32 30 29 29 28 26 25 25 24 24 24 24 23 23 22 22 22 22 21 21 21 22 23 25 25 25 25 24 24 23 22
29 30 31 32 31 31 31 32 32 31 31 31 31 30 29 29 29 28 27 26 26 26 25 24 24 24 24 22 21 21 22 23 23 24 26 27 27 27 27 27 26 26
28 30 30 30 30 30 31 32 33 33 32 31 31 31 31 32 32 30 29 29 29 29 28 28 27 26 26 24 22 21 21 22 23 25 26 27 28 29 29 29 28 28
24 27 29 29 30 29 30 31 32 32 32 31 30 30 31 31 31 31 31 31 30 30 31 31 30 29 29 28 27 25 23 23 23 24 26 27 28 29 30 31 31 30
19 22 26 28 29 30 31 31 30 31 31 31 30 30 31 31 31 32 32 32 32 32 32 31 29 29 29 29 29 29 29 27 26 25 27 28 28 29 30 32 32 31
14 16 20 24 27 29 31 31 31 31 31 31 32 33 34 33 33 34 34 34 34 33 33 32 31 29 29 28 28 28 28 28 28 28 29 29 30 30 31 32 33 33
12 12 14 17 20 24 27 29 31 31 32 33 34 35 35 34 33 34 34 34 35 35 34 33 33 31 30 28 27 27 27 27 28 28 28 29 30 31 32 33 34 34
Wind_Direction
212 209 207 206 201 198 196 192 195 200 202 200 201 203 200 195 193 190 185 183 189 193 195 200 202 202 201 202 204 204 207 206 203 202 199 198 197 191 189 188 185 186
216 213 210 208 206 203 200 198 199 202 203 205 208 206 206 207 204 201 193 186 194 202 201 202 204 208 209 211 211 206 209 211 206 204 202 199 198 196 195 192 189 193
218 216 214 211 207 206 205 203 203 204 204 206 212 209 207 211 212 213 210 199 200 205 205 206 206 211 212 212 215 210 209 211 206 205 204 200 197 196 198 196 194 199
222 218 216 214 211 208 209 209 207 208 209 208 213 214 210 211 213 216 219 212 209 210 209 209 209 211 212 212 216 210 209 212 208 208 207 201 198 198 199 200 200 203
226 222 218 217 215 213 213 214 214 214 216 213 214 217 215 215 214 216 220 218 215 215 213 214 215 214 210 211 215 211 213 216 213 213 212 206 203 203 203 203 205 206
228 224 221 220 218 217 217 218 219 219 221 220 218 220 219 218 218 218 220 220 219 219 217 217 219 219 216 214 212 211 213 217 217 217 216 212 210 211 209 208 210 212
230 227 224 223 222 221 220 221 223 223 224 225 224 225 225 222 223 224 223 223 222 222 221 221 220 220 222 222 215 211 212 218 222 221 219 218 218 219 218 215 216 219
228 230 229 227 225 223 221 222 224 225 226 228 229 230 231 228 226 226 227 229 230 226 224 224 224 223 225 226 222 218 219 223 227 226 224 225 226 227 227 224 224 225
225 229 231 231 231 228 225 224 224 225 227 230 232 233 234 233 232 230 228 230 232 232 231 227 225 226 228 228 226 226 226 227 231 231 230 232 231 232 233 231 231 231
223 227 230 233 235 233 231 228 227 227 227 230 234 235 237 236 236 235 232 232 233 232 233 233 230 229 230 231 230 231 233 234 237 239 238 237 235 234 236 236 236 235
219 223 228 232 236 238 237 234 233 232 230 230 232 234 238 238 238 238 235 233 235 234 233 234 235 235 235 235 235 235 235 236 240 244 245 245 242 240 241 240 240 239
217 219 222 228 235 239 239 238 237 237 235 232 231 232 237 238 237 239 239 236 235 236 236 235 235 239 240 239 239 238 237 237 238 241 245 249 250 249 248 245 243 243
220 220 218 222 230 236 240 240 239 241 242 239 234 230 235 239 238 237 239 240 238 237 238 238 237 240 242 242 242 241 240 240 242 244 244 248 252 254 253 251 248 246
225 223 219 216 218 224 234 241 242 242 243 245 244 237 233 237 242 242 239 238 239 239 239 239 240 241 243 244 245 246 246 245 245 249 250 251 252 254 255 254 252 251
235 232 227 221 217 216 222 232 241 245 244 245 246 245 241 237 239 244 244 241 238 238 241 242 242 243 245 247 248 250 254 255 253 254 256 258 257 256 256 255 254 255
241 238 233 226 220 218 218 221 226 232 240 245 245 245 246 244 240 241 246 248 243 238 238 243 246 247 246 247 252 255 258 261 262 261 260 261 262 261 259 258 258 257
244 243 242 235 226 224 227 228 224 219 219 227 238 245 248 249 246 242 243 249 252 247 242 241 246 251 251 248 248 252 258 262 265 267 266 264 264 264 263 262 261 261
243 245 248 246 239 233 234 238 242 238 225 216 216 226 238 245 248 248 246 245 248 251 251 247 244 247 252 254 251 248 252 257 261 265 268 268 268 269 268 267 266 265
242 242 244 246 246 244 239 238 244 251 248 236 222 215 219 226 235 245 250 248 245 246 251 255 252 248 247 250 252 250 248 250 254 259 263 266 269 270 270 271 270 269
240 240 241 244 246 248 246 241 241 247 255 257 249 237 229 226 227 234 240 243 243 241 244 251 257 258 255 251 250 250 250 249 251 254 258 261 264 267 268 270 271 271
239 238 240 243 245 247 248 248 248 249 251 255 255 252 244 237 234 235 236 238 240 242 244 246 248 253 257 256 250 247 248 251 252 254 256 259 262 264 266 267 268 270
245 243 241 242 244 246 247 249 251 252 253 254 254 252 247 240 238 240 240 241 243 245 248 250 250 250 255 259 257 251 247 248 250 254 256 259 261 263 265 267 267 267
253 251 247 244 244 245 246 249 251 252 253 254 257 258 255 250 247 246 246 246 246 247 249 250 251 252 255 259 262 261 258 252 250 251 253 256 259 261 263 266 267 267
254 254 252 249 247 246 247 249 251 251 252 254 256 257 254 251 249 250 251 250 250 252 255 255 255 255 255 256 260 263 265 264 260 257 256 255 256 258 261 264 266 268
259 257 254 252 250 249 249 251 253 253 253 256 258 255 251 248 247 249 250 251 252 254 256 258 260 261 259 258 259 260 263 266 267 266 264 262 260 260 261 263 265 268
274 270 263 258 256 254 252 252 254 254 253 254 256 256 253 248 247 249 250 251 254 256 257 258 260 261 261 262 261 259 259 261 263 265 266 265 264 264 265 265 266 267